Flag for Canada Weather past 2 weeks in Resolute Bay, Nunavut Territory, Canada

Now
-35 °F

Snow flurries. Passing clouds.


Feels Like: -53 °F
Forecast: -34 / -22 °F
Wind: 6 mph from North

Location: Resolute

Current Time: Mar 6, 2015 at 5:47:29 AM

Latest Report: Mar 6, 2015 at 5:00 AM


Visibility: 15 mi

Pressure: 29.54 "Hg

Humidity: 73%

Dew point: -40 °F

Location of Resolute BayLocation

Historic Weather in Resolute Bay — Graph

°F

Resolute Bay temperature yesterday

Maximum temperature yesterday: -29 °F (at 12:00 PM)
Minimum temperature yesterday: -40 °F (at 12:00 AM)
Average temperature yesterday: -34 °F

Past Weeks' High & Low Weather Summary

 TemperatureHumidityPressure
High-11 °F (Feb 24, 11:00 AM)76% (Feb 21, 10:00 PM)30.51 "Hg (Feb 21, 10:00 PM)
Low-42 °F (Mar 4, 6:00 AM)65% (Mar 3, 11:00 PM)29.33 "Hg (Feb 27, 1:00 PM)
Average-25 °F71%29.87 "Hg
* Reported Feb 19 4:00 AM — Mar 6 4:00 AM, Resolute Bay, Weather by CustomWeather, © 2015

Note: Actual official high and low records may vary slightly from our data, if they occured in-between our weather recording intervals... More about our weather records

Advertising

Resolute Bay weather history for previous 24 hours

 ConditionsComfort  
Time TempWeatherWind HumidityBarometerVisibility
4:00 AM
Fri, Mar 6
-35 °FSnow flurries. Passing clouds.10 mph66%29.52 "Hg15 mi
3:00 AM-31 °FExtremely cold.10 mph67%29.52 "Hg15 mi
2:00 AM-33 °FLight snow. Passing clouds.6 mph66%29.50 "Hg15 mi
1:00 AM-33 °FLight snow. Passing clouds.10 mph66%29.49 "Hg15 mi
12:00 AM-33 °FSnow flurries. Passing clouds.10 mph74%29.49 "Hg15 mi
11:00 PM
Thu, Mar 5
-35 °FSnow flurries. Passing clouds.6 mph66%29.48 "Hg15 mi
10:00 PM-36 °FSnow flurries. Passing clouds.10 mphN/A29.47 "Hg15 mi
9:00 PM-33 °FSnow flurries. Passing clouds.9 mph66%29.46 "Hg15 mi
8:00 PM-36 °FSnow flurries. Passing clouds.10 mph73%29.46 "Hg15 mi
7:00 PM-33 °FPassing clouds.6 mph74%29.44 "Hg15 mi
6:00 PM-33 °FSnow flurries. Passing clouds.7 mph74%29.44 "Hg15 mi
5:00 PM-31 °FSnow flurries. Passing clouds.8 mph67%29.44 "Hg15 mi
4:00 PM-33 °FSnow flurries. Passing clouds.7 mph74%29.43 "Hg15 mi
3:00 PM-29 °FSnow flurries. Passing clouds.3 mph67%29.41 "Hg15 mi
2:00 PM-29 °FSnow flurries. Passing clouds.5 mph67%29.41 "Hg7 mi
1:00 PM-29 °FSnow flurries. Passing clouds.5 mph67%29.41 "Hg15 mi
12:00 PM-29 °FSnow flurries. Scattered clouds.3 mph67%29.41 "Hg15 mi
11:00 AM-31 °FSnow flurries. Partly sunny.3 mph74%29.41 "Hg15 mi
10:00 AM-33 °FSnow flurries. Partly sunny.3 mph66%29.41 "Hg15 mi
9:00 AM-35 °FLight snow. Partly sunny.6 mph66%29.42 "Hg13 mi
8:00 AM-35 °FLight snow. Partly sunny.6 mph66%29.42 "Hg15 mi
7:00 AM-35 °FLight snow. Partly cloudy.10 mph66%29.43 "Hg15 mi
6:00 AM-35 °FLight snow. Passing clouds.10 mph66%29.44 "Hg15 mi
5:00 AM-35 °FLight snow. Passing clouds.10 mph66%29.44 "Hg15 mi
Weather by CustomWeather, © 2015

See weather overviewHow to use our weather pages